This is the latest recevied weather packets stored in our database for station/object DO1MIT-10. If no packets are shown the sender has not sent any weather packets the latest 10 day(s).
| Time | Temp. | Humidity | Pressure | Rain* | Wind** | Luminosity | Snow |
|---|---|---|---|---|---|---|---|
| 1777824293 | 25.56° C | 37% | 1013.7 hPa | - | - | - | - |
| 1777823393 | 26.11° C | 36% | 1013.7 hPa | - | - | - | - |
| 1777822493 | 27.22° C | 36% | 1013.8 hPa | - | - | - | - |
| 1777821593 | 27.22° C | 36% | 1013.9 hPa | - | - | - | - |
| 1777820693 | 27.78° C | 35% | 1014.1 hPa | - | - | - | - |
| 1777819793 | 27.78° C | 35% | 1014.3 hPa | - | - | - | - |
| 1777818893 | 28.33° C | 36% | 1014.5 hPa | - | - | - | - |
| 1777817992 | 28.33° C | 35% | 1014.6 hPa | - | - | - | - |
| 1777817092 | 29.44° C | 36% | 1014.9 hPa | - | - | - | - |
| 1777816192 | 28.89° C | 37% | 1015 hPa | - | - | - | - |
| 1777815292 | 28.89° C | 37% | 1015.2 hPa | - | - | - | - |
| 1777814392 | 28.33° C | 37% | 1015.3 hPa | - | - | - | - |
| 1777813492 | 27.78° C | 37% | 1015.6 hPa | - | - | - | - |
| 1777812592 | 26.67° C | 38% | 1015.8 hPa | - | - | - | - |
| 1777811692 | 26.11° C | 38% | 1015.9 hPa | - | - | - | - |
| 1777810792 | 26.11° C | 38% | 1016.1 hPa | - | - | - | - |
| 1777809891 | 26.11° C | 38% | 1016.2 hPa | - | - | - | - |
| 1777808991 | 26.11° C | 39% | 1016.3 hPa | - | - | - | - |
| 1777808091 | 25.56° C | 39% | 1016.5 hPa | - | - | - | - |
| 1777807191 | 26.11° C | 38% | 1016.7 hPa | - | - | - | - |
| 1777806291 | 26.11° C | 39% | 1016.9 hPa | - | - | - | - |
| 1777805391 | 25.56° C | 40% | 1016.9 hPa | - | - | - | - |
| 1777804491 | 25.56° C | 40% | 1017 hPa | - | - | - | - |
| 1777803591 | 25° C | 39% | 1017.1 hPa | - | - | - | - |
| 1777802691 | 25.56° C | 40% | 1017.2 hPa | - | - | - | - |
* Rain since midnight (hover to see other rain measurements)
** Current wind speed in m/s (hover to see current wind gust speed)